Tracking 34719 objects as of 12-Jul-2026
HD Live streaming from Space Station
objects crossing your sky now

STARLINK-37790

Track STARLINK-37790 now!
10-day predictions
STARLINK-37790 is classified as:


NORAD ID: 69312
Int'l Code: 2026-119S
Perigee: 472.1 km
Apogee: 473.2 km
Inclination: 97.3 °
Period: 93.9 minutes
Semi major axis: 6843 km
RCS: Unknown
Launch date: May 30, 2026
Source: United States (US)
Launch site: AIR FORCE WESTERN TEST RANGE (AFWTR)
Your satellite tracking list
Your tracking list is empty




NASA's NSSDC Master Catalog

Two Line Element Set (TLE):
1 69312U 26119S   26193.53331094  .00013062  00000-0  40616-3 0  9991
2 69312  97.2855 219.3071 0000759  90.4828 269.6502 15.33450749  7945
Source of the keplerian elements: AFSPC